User: anonymous   Login
Location: Augirein
(42.9320°N, 0.9181°E)
Time: 19:34:24
(UTC+00:00)
Language:

ASTEX 1 - Orbit

View from above orbital plane
View from above orbital plane
View from above satellite
View from above satellite

Ground track
Ground track

The orbit data is extracted from the following two-line orbital elements,

1 05560U 71089A   21270.49666933  .00000101  00000-0  27437-4 0  9998
2 05560  92.7215 347.4407 0017312 151.2371 208.9792 14.48154329627077
Epoch (UTC): 27 September 2021 11:55:12
Eccentricity: 0.0017312
inclination: 92.7215°
perigee height: 719 km
apogee height: 744 km
right ascension of ascending node: 347.4407°
argument of perigee: 151.2371°
revolutions per day: 14.48154329
mean anomaly at epoch: 208.9792°
orbit number at epoch: 62707

The dashed part of the orbit path shows where the satellite is in the earth's shadow,  

DLR